EW1145 Weather Reports


Display with metric or nautical units.
time (UTC)temp
F
wind
direction
speed
MPH
gust
MPH
rain 1hr
in
rain 24hr
in
rain mn
in
humidity
%
barometer
mb
20260508010005 71 219 1.0 4.0 0.00 0.00 0.00 49 1015.8
20260508004502 71 219 0.0 5.0 0.00 0.00 0.00 50 1015.8
20260508003113 71 198 0.0 3.0 0.00 0.00 0.00 50 1015.9
20260508001559 70 90 0.0 3.0 0.00 0.00 0.00 49 1016.0
20260508000057 70 210 0.0 4.0 0.00 0.00 0.00 51 1016.2
20260507234558 71 192 0.0 2.0 0.00 0.00 0.00 51 1016.2
20260507233053 70 184 0.0 4.0 0.00 0.00 0.00 51 1016.4
20260507231606 70 194 0.0 2.0 0.00 0.00 0.00 49 1016.6
20260507230051 70 200 0.0 4.0 0.00 0.00 0.00 49 1016.8
20260507224557 69 134 0.0 4.0 0.00 0.00 0.00 51 1017.1
20260507223044 68 78 0.0 5.0 0.00 0.00 0.00 51 1017.3
20260507221542 68 103 0.0 5.0 0.00 0.00 0.00 50 1017.5
20260507220040 68 98 0.0 4.0 0.00 0.00 0.00 50 1017.8
20260507214535 66 209 0.0 1.0 0.00 0.00 0.00 53 1018.0
20260507213033 65 107 0.0 4.0 0.00 0.00 0.00 53 1018.1
20260507211532 65 24 0.0 4.0 0.00 0.00 0.00 54 1018.2
20260507210030 65 193 0.0 4.0 0.00 0.00 0.00 53 1018.3
20260507204527 64 113 2.0 8.0 0.00 0.00 0.00 55 1018.6
20260507203024 63 344 1.0 7.0 0.00 0.00 0.00 57 1018.8
20260507201523 62 108 2.0 6.0 0.00 0.00 0.00 57 1019.0
20260507200030 62 94 1.0 6.0 0.00 0.00 0.00 58 1019.2
20260507194516 61 326 0.0 4.0 0.00 0.00 0.00 58 1019.4
20260507193013 60 76 3.0 8.0 0.00 0.00 0.00 60 1019.5
20260507191509 59 106 1.0 7.0 0.00 0.00 0.00 61 1019.7
20260507190020 59 84 1.0 5.0 0.00 0.00 0.00 62 1019.8
20260507184505 59 229 1.0 5.0 0.00 0.00 0.00 62 1019.9
20260507183008 58 31 0.0 5.0 0.00 0.00 0.00 65 1020.0
20260507181502 58 95 0.0 1.0 0.00 0.00 0.00 64 1020.2
20260507180002 57 117 0.0 5.0 0.00 0.00 0.00 66 1020.3
20260507174502 58 355 0.0 3.0 0.00 0.00 0.00 64 1020.4
20260507173100 58 126 0.0 5.0 0.00 0.00 0.00 65 1020.5
20260507171604 57 104 0.0 3.0 0.00 0.00 0.00 67 1020.5
20260507170056 56 195 0.0 5.0 0.00 0.00 0.00 67 1020.6
20260507164555 55 287 0.0 5.0 0.00 0.00 0.00 68 1020.7
20260507163050 54 74 0.0 5.0 0.00 0.00 0.00 69 1020.7
20260507161548 53 314 0.0 5.0 0.00 0.00 0.00 70 1020.7
20260507160054 52 293 0.0 5.0 0.00 0.00 0.00 72 1020.8
20260507154546 51 121 0.0 4.0 0.00 0.00 0.00 74 1020.8
20260507153051 51 43 0.0 3.0 0.00 0.00 0.00 74 1020.8
20260507151544 50 296 0.0 1.0 0.00 0.00 0.00 75 1020.8
20260507150044 50 296 0.0 4.0 0.00 0.00 0.00 76 1020.8
20260507144548 49 289 0.0 4.0 0.00 0.00 0.00 77 1020.8
20260507143043 49 325 0.0 6.0 0.00 0.00 0.00 78 1020.7
20260507141541 49 294 0.0 2.0 0.00 0.00 0.00 78 1020.7
20260507134540 49 294 0.0 4.0 0.00 0.00 0.00 78 1020.5
20260507133039 49 284 0.0 5.0 0.00 0.00 0.00 78 1020.4
20260507131538 49 281 0.0 4.0 0.00 0.00 0.00 77 1020.3
20260507130048 49 284 0.0 0.0 0.00 0.00 0.00 77 1020.3
20260507124541 50 284 0.0 3.0 0.00 0.00 0.00 77 1020.2
20260507123038 50 283 0.0 4.0 0.00 0.00 0.00 75 1020.2
20260507121539 50 344 0.0 1.0 0.00 0.00 0.00 75 1020.3
20260507120029 51 320 0.0 1.0 0.00 0.00 0.00 76 1020.4
20260507114527 51 344 0.0 0.0 0.00 0.00 0.00 75 1020.5
20260507113033 51 299 0.0 1.0 0.00 0.00 0.00 76 1020.6
20260507111525 51 299 0.0 1.0 0.00 0.00 0.00 76 1020.5
20260507110027 51 299 0.0 2.0 0.00 0.00 0.00 76 1020.6
20260507104522 51 5 0.0 1.0 0.00 0.00 0.00 76 1020.7
20260507103020 52 360 0.0 0.0 0.00 0.00 0.00 77 1020.8
20260507101527 52 5 0.0 1.0 0.00 0.00 0.00 78 1020.9
20260507100025 52 285 0.0 0.0 0.00 0.00 0.00 78 1021.0
20260507094521 52 285 0.0 0.0 0.00 0.00 0.00 78 1021.0
20260507093032 52 285 0.0 0.0 0.00 0.00 0.00 77 1021.1
20260507091515 52 285 0.0 0.0 0.00 0.00 0.00 77 1021.2
20260507090027 52 285 0.0 1.0 0.00 0.00 0.00 77 1021.4
20260507084514 52 285 0.0 1.0 0.00 0.00 0.00 77 1021.3
20260507083029 52 285 0.0 1.0 0.00 0.00 0.00 78 1021.2
20260507081513 52 285 0.0 2.0 0.00 0.00 0.00 78 1021.2
20260507080010 53 285 0.0 0.0 0.00 0.00 0.00 77 1021.1
20260507074523 53 285 0.0 1.0 0.00 0.00 0.00 77 1021.2
20260507073009 53 285 0.0 0.0 0.00 0.00 0.00 78 1021.2
20260507071508 53 286 0.0 5.0 0.00 0.00 0.00 78 1021.1
20260507070011 53 360 0.0 4.0 0.00 0.00 0.00 78 1021.0
20260507064506 53 351 0.0 2.0 0.00 0.00 0.00 79 1021.0
20260507063004 53 220 0.0 4.0 0.00 0.00 0.00 80 1021.0
20260507061505 53 275 0.0 3.0 0.00 0.00 0.00 80 1021.1
20260507060003 53 355 0.0 0.0 0.00 0.00 0.00 81 1021.1
20260507054503 53 294 0.0 1.0 0.00 0.00 0.00 81 1021.0
20260507053001 53 331 0.0 0.0 0.00 0.00 0.00 81 1020.9
20260507051601 54 314 0.0 1.0 0.00 0.00 0.00 80 1020.9
20260507050100 54 5 0.0 0.0 0.00 0.00 0.00 80 1020.9
20260507044618 55 45 0.0 0.0 0.00 0.00 0.00 78 1020.8
20260507043059 56 45 0.0 5.0 0.00 0.00 0.00 77 1020.8
20260507041602 56 37 0.0 5.0 0.00 0.00 0.00 76 1020.8
20260507040104 57 17 0.0 5.0 0.00 0.00 0.00 75 1020.6
20260507034558 57 18 0.0 4.0 0.00 0.00 0.00 75 1020.3
20260507033056 58 52 0.0 8.0 0.00 0.00 0.00 75 1020.2
20260507031557 58 29 0.0 5.0 0.00 0.00 0.00 73 1019.9
20260507030055 59 25 0.0 5.0 0.00 0.00 0.00 73 1019.8
20260507024552 60 63 0.0 8.0 0.00 0.00 0.00 72 1019.7
20260507023051 61 5 0.0 7.0 0.00 0.00 0.00 72 1019.5
20260507021551 62 29 0.0 7.0 0.00 0.00 0.00 71 1019.4
20260507020101 63 345 0.0 8.0 0.00 0.00 0.00 69 1019.4
20260507014602 65 312 0.0 5.0 0.00 0.00 0.00 66 1019.4
20260507013049 65 95 1.0 8.0 0.00 0.00 0.00 67 1019.4
20260507011600 66 22 0.0 5.0 0.00 0.00 0.00 66 1019.5
20260507010049 65 13 0.0 5.0 0.00 0.00 0.00 68 1019.5